Index of /20260423/WXO-DD/model_rdps/10km/18/038
Name Last modified Size Description
Parent Directory -
20260423T18Z_MSC_RDPS_AbsoluteVorticity_IsbL-0250_RLatLon0.09_PT038H.grib2 2026-04-23 20:50 619K
20260423T18Z_MSC_RDPS_AbsoluteVorticity_IsbL-0500_RLatLon0.09_PT038H.grib2 2026-04-23 20:50 573K
20260423T18Z_MSC_RDPS_AbsoluteVorticity_IsbL-0700_RLatLon0.09_PT038H.grib2 2026-04-23 20:50 631K
20260423T18Z_MSC_RDPS_AbsoluteVorticity_IsbL-0850_RLatLon0.09_PT038H.grib2 2026-04-23 20:50 785K
20260423T18Z_MSC_RDPS_AirTemp_AGL-120m_RLatLon0.09_PT038H.grib2 2026-04-23 20:50 376K
20260423T18Z_MSC_RDPS_AirTemp_AGL-2m_RLatLon0.09_PT038H.grib2 2026-04-23 20:50 632K
20260423T18Z_MSC_RDPS_AirTemp_AGL-40m_RLatLon0.09_PT038H.grib2 2026-04-23 20:50 391K
20260423T18Z_MSC_RDPS_AirTemp_AGL-80m_RLatLon0.09_PT038H.grib2 2026-04-23 20:50 383K
20260423T18Z_MSC_RDPS_AirTemp_IsbL-0001_RLatLon0.09_PT038H.grib2 2026-04-23 20:50 301K
20260423T18Z_MSC_RDPS_AirTemp_IsbL-0005_RLatLon0.09_PT038H.grib2 2026-04-23 20:50 337K
20260423T18Z_MSC_RDPS_AirTemp_IsbL-0010_RLatLon0.09_PT038H.grib2 2026-04-23 20:50 308K
20260423T18Z_MSC_RDPS_AirTemp_IsbL-0020_RLatLon0.09_PT038H.grib2 2026-04-23 20:50 329K
20260423T18Z_MSC_RDPS_AirTemp_IsbL-0030_RLatLon0.09_PT038H.grib2 2026-04-23 20:50 354K
20260423T18Z_MSC_RDPS_AirTemp_IsbL-0050_RLatLon0.09_PT038H.grib2 2026-04-23 20:50 332K
20260423T18Z_MSC_RDPS_AirTemp_IsbL-0100_RLatLon0.09_PT038H.grib2 2026-04-23 20:50 435K
20260423T18Z_MSC_RDPS_AirTemp_IsbL-0150_RLatLon0.09_PT038H.grib2 2026-04-23 20:50 437K
20260423T18Z_MSC_RDPS_AirTemp_IsbL-0175_RLatLon0.09_PT038H.grib2 2026-04-23 20:50 428K
20260423T18Z_MSC_RDPS_AirTemp_IsbL-0200_RLatLon0.09_PT038H.grib2 2026-04-23 20:50 426K
20260423T18Z_MSC_RDPS_AirTemp_IsbL-0225_RLatLon0.09_PT038H.grib2 2026-04-23 20:50 425K
20260423T18Z_MSC_RDPS_AirTemp_IsbL-0250_RLatLon0.09_PT038H.grib2 2026-04-23 20:50 431K
20260423T18Z_MSC_RDPS_AirTemp_IsbL-0275_RLatLon0.09_PT038H.grib2 2026-04-23 20:50 412K
20260423T18Z_MSC_RDPS_AirTemp_IsbL-0300_RLatLon0.09_PT038H.grib2 2026-04-23 20:50 418K
20260423T18Z_MSC_RDPS_AirTemp_IsbL-0350_RLatLon0.09_PT038H.grib2 2026-04-23 20:50 431K
20260423T18Z_MSC_RDPS_AirTemp_IsbL-0400_RLatLon0.09_PT038H.grib2 2026-04-23 20:50 397K
20260423T18Z_MSC_RDPS_AirTemp_IsbL-0450_RLatLon0.09_PT038H.grib2 2026-04-23 20:50 403K
20260423T18Z_MSC_RDPS_AirTemp_IsbL-0500_RLatLon0.09_PT038H.grib2 2026-04-23 20:50 414K
20260423T18Z_MSC_RDPS_AirTemp_IsbL-0550_RLatLon0.09_PT038H.grib2 2026-04-23 20:50 432K
20260423T18Z_MSC_RDPS_AirTemp_IsbL-0600_RLatLon0.09_PT038H.grib2 2026-04-23 20:50 449K
20260423T18Z_MSC_RDPS_AirTemp_IsbL-0650_RLatLon0.09_PT038H.grib2 2026-04-23 20:50 466K
20260423T18Z_MSC_RDPS_AirTemp_IsbL-0700_RLatLon0.09_PT038H.grib2 2026-04-23 20:50 490K
20260423T18Z_MSC_RDPS_AirTemp_IsbL-0750_RLatLon0.09_PT038H.grib2 2026-04-23 20:50 415K
20260423T18Z_MSC_RDPS_AirTemp_IsbL-0800_RLatLon0.09_PT038H.grib2 2026-04-23 20:50 459K
20260423T18Z_MSC_RDPS_AirTemp_IsbL-0850_RLatLon0.09_PT038H.grib2 2026-04-23 20:50 502K
20260423T18Z_MSC_RDPS_AirTemp_IsbL-0875_RLatLon0.09_PT038H.grib2 2026-04-23 20:50 517K
20260423T18Z_MSC_RDPS_AirTemp_IsbL-0900_RLatLon0.09_PT038H.grib2 2026-04-23 20:50 525K
20260423T18Z_MSC_RDPS_AirTemp_IsbL-0925_RLatLon0.09_PT038H.grib2 2026-04-23 20:50 522K
20260423T18Z_MSC_RDPS_AirTemp_IsbL-0950_RLatLon0.09_PT038H.grib2 2026-04-23 20:50 523K
20260423T18Z_MSC_RDPS_AirTemp_IsbL-0970_RLatLon0.09_PT038H.grib2 2026-04-23 20:50 520K
20260423T18Z_MSC_RDPS_AirTemp_IsbL-0985_RLatLon0.09_PT038H.grib2 2026-04-23 20:50 508K
20260423T18Z_MSC_RDPS_AirTemp_IsbL-1000_RLatLon0.09_PT038H.grib2 2026-04-23 20:50 490K
20260423T18Z_MSC_RDPS_AirTemp_IsbL-1015_RLatLon0.09_PT038H.grib2 2026-04-23 20:50 486K
20260423T18Z_MSC_RDPS_Albedo_Sfc_RLatLon0.09_PT038H.grib2 2026-04-23 20:50 166K
20260423T18Z_MSC_RDPS_CAPE_Sfc_RLatLon0.09_PT038H.grib2 2026-04-23 20:50 1.7M
20260423T18Z_MSC_RDPS_CIN_Sfc_RLatLon0.09_PT038H.grib2 2026-04-23 20:50 1.1M
20260423T18Z_MSC_RDPS_CloudWater_EAtm_RLatLon0.09_PT038H.grib2 2026-04-23 20:50 218K
20260423T18Z_MSC_RDPS_ConvectivePrecip-Accum_Sfc_RLatLon0.09_PT038H.grib2 2026-04-23 20:50 1.0M
20260423T18Z_MSC_RDPS_DewPointDepression_AGL-2m_RLatLon0.09_PT038H.grib2 2026-04-23 20:50 391K
20260423T18Z_MSC_RDPS_DewPointDepression_IsbL-0001_RLatLon0.09_PT038H.grib2 2026-04-23 20:50 193
20260423T18Z_MSC_RDPS_DewPointDepression_IsbL-0005_RLatLon0.09_PT038H.grib2 2026-04-23 20:50 193
20260423T18Z_MSC_RDPS_DewPointDepression_IsbL-0010_RLatLon0.09_PT038H.grib2 2026-04-23 20:50 193
20260423T18Z_MSC_RDPS_DewPointDepression_IsbL-0020_RLatLon0.09_PT038H.grib2 2026-04-23 20:50 193
20260423T18Z_MSC_RDPS_DewPointDepression_IsbL-0030_RLatLon0.09_PT038H.grib2 2026-04-23 20:50 193
20260423T18Z_MSC_RDPS_DewPointDepression_IsbL-0050_RLatLon0.09_PT038H.grib2 2026-04-23 20:50 92K
20260423T18Z_MSC_RDPS_DewPointDepression_IsbL-0100_RLatLon0.09_PT038H.grib2 2026-04-23 20:50 130K
20260423T18Z_MSC_RDPS_DewPointDepression_IsbL-0150_RLatLon0.09_PT038H.grib2 2026-04-23 20:50 153K
20260423T18Z_MSC_RDPS_DewPointDepression_IsbL-0175_RLatLon0.09_PT038H.grib2 2026-04-23 20:50 189K
20260423T18Z_MSC_RDPS_DewPointDepression_IsbL-0200_RLatLon0.09_PT038H.grib2 2026-04-23 20:50 223K
20260423T18Z_MSC_RDPS_DewPointDepression_IsbL-0225_RLatLon0.09_PT038H.grib2 2026-04-23 20:50 261K
20260423T18Z_MSC_RDPS_DewPointDepression_IsbL-0250_RLatLon0.09_PT038H.grib2 2026-04-23 20:50 297K
20260423T18Z_MSC_RDPS_DewPointDepression_IsbL-0275_RLatLon0.09_PT038H.grib2 2026-04-23 20:50 310K
20260423T18Z_MSC_RDPS_DewPointDepression_IsbL-0300_RLatLon0.09_PT038H.grib2 2026-04-23 20:50 335K
20260423T18Z_MSC_RDPS_DewPointDepression_IsbL-0350_RLatLon0.09_PT038H.grib2 2026-04-23 20:50 346K
20260423T18Z_MSC_RDPS_DewPointDepression_IsbL-0400_RLatLon0.09_PT038H.grib2 2026-04-23 20:50 357K
20260423T18Z_MSC_RDPS_DewPointDepression_IsbL-0450_RLatLon0.09_PT038H.grib2 2026-04-23 20:50 364K
20260423T18Z_MSC_RDPS_DewPointDepression_IsbL-0500_RLatLon0.09_PT038H.grib2 2026-04-23 20:50 372K
20260423T18Z_MSC_RDPS_DewPointDepression_IsbL-0550_RLatLon0.09_PT038H.grib2 2026-04-23 20:50 382K
20260423T18Z_MSC_RDPS_DewPointDepression_IsbL-0600_RLatLon0.09_PT038H.grib2 2026-04-23 20:50 389K
20260423T18Z_MSC_RDPS_DewPointDepression_IsbL-0650_RLatLon0.09_PT038H.grib2 2026-04-23 20:50 393K
20260423T18Z_MSC_RDPS_DewPointDepression_IsbL-0700_RLatLon0.09_PT038H.grib2 2026-04-23 20:50 403K
20260423T18Z_MSC_RDPS_DewPointDepression_IsbL-0750_RLatLon0.09_PT038H.grib2 2026-04-23 20:50 421K
20260423T18Z_MSC_RDPS_DewPointDepression_IsbL-0800_RLatLon0.09_PT038H.grib2 2026-04-23 20:50 448K
20260423T18Z_MSC_RDPS_DewPointDepression_IsbL-0850_RLatLon0.09_PT038H.grib2 2026-04-23 20:50 466K
20260423T18Z_MSC_RDPS_DewPointDepression_IsbL-0875_RLatLon0.09_PT038H.grib2 2026-04-23 20:50 469K
20260423T18Z_MSC_RDPS_DewPointDepression_IsbL-0900_RLatLon0.09_PT038H.grib2 2026-04-23 20:50 464K
20260423T18Z_MSC_RDPS_DewPointDepression_IsbL-0925_RLatLon0.09_PT038H.grib2 2026-04-23 20:50 454K
20260423T18Z_MSC_RDPS_DewPointDepression_IsbL-0950_RLatLon0.09_PT038H.grib2 2026-04-23 20:50 443K
20260423T18Z_MSC_RDPS_DewPointDepression_IsbL-0970_RLatLon0.09_PT038H.grib2 2026-04-23 20:50 435K
20260423T18Z_MSC_RDPS_DewPointDepression_IsbL-0985_RLatLon0.09_PT038H.grib2 2026-04-23 20:50 429K
20260423T18Z_MSC_RDPS_DewPointDepression_IsbL-1000_RLatLon0.09_PT038H.grib2 2026-04-23 20:50 425K
20260423T18Z_MSC_RDPS_DewPointDepression_IsbL-1015_RLatLon0.09_PT038H.grib2 2026-04-23 20:50 415K
20260423T18Z_MSC_RDPS_DewPoint_AGL-2m_RLatLon0.09_PT038H.grib2 2026-04-23 20:50 308K
20260423T18Z_MSC_RDPS_DownwardLongwaveRadiationFlux-Accum_Sfc_RLatLon0.09_PT038H.grib2 2026-04-23 20:50 381K
20260423T18Z_MSC_RDPS_DownwardShortwaveRadiationFlux-Accum_NTAtm_RLatLon0.09_PT038H.grib2 2026-04-23 20:50 93K
20260423T18Z_MSC_RDPS_DownwardShortwaveRadiationFlux-Accum_Sfc_RLatLon0.09_PT038H.grib2 2026-04-23 20:50 562K
20260423T18Z_MSC_RDPS_FreezingRain-Accum1h_Sfc_RLatLon0.09_PT038H.grib2 2026-04-23 20:50 46K
20260423T18Z_MSC_RDPS_FreezingRain-Accum_Sfc_RLatLon0.09_PT038H.grib2 2026-04-23 20:50 123K
20260423T18Z_MSC_RDPS_GeopotentialHeight_IsbL-0001_RLatLon0.09_PT038H.grib2 2026-04-23 20:50 274K
20260423T18Z_MSC_RDPS_GeopotentialHeight_IsbL-0005_RLatLon0.09_PT038H.grib2 2026-04-23 20:50 313K
20260423T18Z_MSC_RDPS_GeopotentialHeight_IsbL-0010_RLatLon0.09_PT038H.grib2 2026-04-23 20:50 311K
20260423T18Z_MSC_RDPS_GeopotentialHeight_IsbL-0020_RLatLon0.09_PT038H.grib2 2026-04-23 20:50 311K
20260423T18Z_MSC_RDPS_GeopotentialHeight_IsbL-0030_RLatLon0.09_PT038H.grib2 2026-04-23 20:50 410K
20260423T18Z_MSC_RDPS_GeopotentialHeight_IsbL-0050_RLatLon0.09_PT038H.grib2 2026-04-23 20:50 316K
20260423T18Z_MSC_RDPS_GeopotentialHeight_IsbL-0100_RLatLon0.09_PT038H.grib2 2026-04-23 20:50 292K
20260423T18Z_MSC_RDPS_GeopotentialHeight_IsbL-0150_RLatLon0.09_PT038H.grib2 2026-04-23 20:50 233K
20260423T18Z_MSC_RDPS_GeopotentialHeight_IsbL-0175_RLatLon0.09_PT038H.grib2 2026-04-23 20:50 236K
20260423T18Z_MSC_RDPS_GeopotentialHeight_IsbL-0200_RLatLon0.09_PT038H.grib2 2026-04-23 20:50 240K
20260423T18Z_MSC_RDPS_GeopotentialHeight_IsbL-0225_RLatLon0.09_PT038H.grib2 2026-04-23 20:50 241K
20260423T18Z_MSC_RDPS_GeopotentialHeight_IsbL-0250_RLatLon0.09_PT038H.grib2 2026-04-23 20:50 242K
20260423T18Z_MSC_RDPS_GeopotentialHeight_IsbL-0275_RLatLon0.09_PT038H.grib2 2026-04-23 20:50 240K
20260423T18Z_MSC_RDPS_GeopotentialHeight_IsbL-0300_RLatLon0.09_PT038H.grib2 2026-04-23 20:50 240K
20260423T18Z_MSC_RDPS_GeopotentialHeight_IsbL-0350_RLatLon0.09_PT038H.grib2 2026-04-23 20:50 235K
20260423T18Z_MSC_RDPS_GeopotentialHeight_IsbL-0400_RLatLon0.09_PT038H.grib2 2026-04-23 20:50 232K
20260423T18Z_MSC_RDPS_GeopotentialHeight_IsbL-0450_RLatLon0.09_PT038H.grib2 2026-04-23 20:50 300K
20260423T18Z_MSC_RDPS_GeopotentialHeight_IsbL-0500_RLatLon0.09_PT038H.grib2 2026-04-23 20:50 294K
20260423T18Z_MSC_RDPS_GeopotentialHeight_IsbL-0550_RLatLon0.09_PT038H.grib2 2026-04-23 20:50 290K
20260423T18Z_MSC_RDPS_GeopotentialHeight_IsbL-0600_RLatLon0.09_PT038H.grib2 2026-04-23 20:50 258K
20260423T18Z_MSC_RDPS_GeopotentialHeight_IsbL-0650_RLatLon0.09_PT038H.grib2 2026-04-23 20:50 255K
20260423T18Z_MSC_RDPS_GeopotentialHeight_IsbL-0700_RLatLon0.09_PT038H.grib2 2026-04-23 20:50 336K
20260423T18Z_MSC_RDPS_GeopotentialHeight_IsbL-0750_RLatLon0.09_PT038H.grib2 2026-04-23 20:50 337K
20260423T18Z_MSC_RDPS_GeopotentialHeight_IsbL-0800_RLatLon0.09_PT038H.grib2 2026-04-23 20:50 345K
20260423T18Z_MSC_RDPS_GeopotentialHeight_IsbL-0850_RLatLon0.09_PT038H.grib2 2026-04-23 20:50 353K
20260423T18Z_MSC_RDPS_GeopotentialHeight_IsbL-0875_RLatLon0.09_PT038H.grib2 2026-04-23 20:50 357K
20260423T18Z_MSC_RDPS_GeopotentialHeight_IsbL-0900_RLatLon0.09_PT038H.grib2 2026-04-23 20:50 361K
20260423T18Z_MSC_RDPS_GeopotentialHeight_IsbL-0925_RLatLon0.09_PT038H.grib2 2026-04-23 20:50 364K
20260423T18Z_MSC_RDPS_GeopotentialHeight_IsbL-0950_RLatLon0.09_PT038H.grib2 2026-04-23 20:50 366K
20260423T18Z_MSC_RDPS_GeopotentialHeight_IsbL-0970_RLatLon0.09_PT038H.grib2 2026-04-23 20:50 372K
20260423T18Z_MSC_RDPS_GeopotentialHeight_IsbL-0985_RLatLon0.09_PT038H.grib2 2026-04-23 20:50 381K
20260423T18Z_MSC_RDPS_GeopotentialHeight_IsbL-1000_RLatLon0.09_PT038H.grib2 2026-04-23 20:50 300K
20260423T18Z_MSC_RDPS_GeopotentialHeight_IsbL-1015_RLatLon0.09_PT038H.grib2 2026-04-23 20:50 312K
20260423T18Z_MSC_RDPS_Humidex_Sfc_RLatLon0.09_PT038H.grib2 2026-04-23 20:50 2.4M
20260423T18Z_MSC_RDPS_IcePellets-Accum1h_Sfc_RLatLon0.09_PT038H.grib2 2026-04-23 20:50 24K
20260423T18Z_MSC_RDPS_IcePellets-Accum_Sfc_RLatLon0.09_PT038H.grib2 2026-04-23 20:50 60K
20260423T18Z_MSC_RDPS_KIndex_Sfc_RLatLon0.09_PT038H.grib2 2026-04-23 20:50 2.5M
20260423T18Z_MSC_RDPS_LatentHeatNetFlux_Sfc_RLatLon0.09_PT038H.grib2 2026-04-23 20:50 402K
20260423T18Z_MSC_RDPS_LiftedIndex-MU-VT_IsbL-0500_RLatLon0.09_PT038H.grib2 2026-04-23 20:50 2.4M
20260423T18Z_MSC_RDPS_NetLongwaveRadiationFlux-Accum_Sfc_RLatLon0.09_PT038H.grib2 2026-04-23 20:50 513K
20260423T18Z_MSC_RDPS_NetShortwaveRadiationFlux-Accum_Sfc_RLatLon0.09_PT038H.grib2 2026-04-23 20:50 566K
20260423T18Z_MSC_RDPS_PlanetaryBoundaryLayerHeight_Sfc_RLatLon0.09_PT038H.grib2 2026-04-23 20:50 1.1M
20260423T18Z_MSC_RDPS_Precip-Accum1h_Sfc_RLatLon0.09_PT038H.grib2 2026-04-23 20:50 1.3M
20260423T18Z_MSC_RDPS_Precip-Accum_Sfc_RLatLon0.09_PT038H.grib2 2026-04-23 20:50 2.0M
20260423T18Z_MSC_RDPS_PrecipRate_Sfc_RLatLon0.09_PT038H.grib2 2026-04-23 20:50 189K
20260423T18Z_MSC_RDPS_PrecipType-Instant_Sfc_RLatLon0.09_PT038H.grib2 2026-04-23 20:50 605K
20260423T18Z_MSC_RDPS_Pressure-Trend3h_Sfc_RLatLon0.09_PT038H.grib2 2026-04-23 20:50 1.2M
20260423T18Z_MSC_RDPS_Pressure_MSL_RLatLon0.09_PT038H.grib2 2026-04-23 20:50 324K
20260423T18Z_MSC_RDPS_Pressure_PVU-1.5_RLatLon0.09_PT038H.grib2 2026-04-23 20:50 2.3M
20260423T18Z_MSC_RDPS_Pressure_PVU-1_RLatLon0.09_PT038H.grib2 2026-04-23 20:50 2.4M
20260423T18Z_MSC_RDPS_Pressure_PVU-2_RLatLon0.09_PT038H.grib2 2026-04-23 20:50 2.4M
20260423T18Z_MSC_RDPS_Pressure_Sfc_RLatLon0.09_PT038H.grib2 2026-04-23 20:50 500K
20260423T18Z_MSC_RDPS_RadiativeTemp_Sfc_RLatLon0.09_PT038H.grib2 2026-04-23 20:50 301K
20260423T18Z_MSC_RDPS_Rain-Accum1h_Sfc_RLatLon0.09_PT038H.grib2 2026-04-23 20:50 598K
20260423T18Z_MSC_RDPS_Rain-Accum_Sfc_RLatLon0.09_PT038H.grib2 2026-04-23 20:50 1.5M
20260423T18Z_MSC_RDPS_RelativeHumidity_AGL-2m_RLatLon0.09_PT038H.grib2 2026-04-23 20:50 1.0M
20260423T18Z_MSC_RDPS_RelativeHumidity_IsbL-0010_RLatLon0.09_PT038H.grib2 2026-04-23 20:50 638K
20260423T18Z_MSC_RDPS_RelativeHumidity_IsbL-0020_RLatLon0.09_PT038H.grib2 2026-04-23 20:50 662K
20260423T18Z_MSC_RDPS_RelativeHumidity_IsbL-0030_RLatLon0.09_PT038H.grib2 2026-04-23 20:50 553K
20260423T18Z_MSC_RDPS_RelativeHumidity_IsbL-0050_RLatLon0.09_PT038H.grib2 2026-04-23 20:50 383K
20260423T18Z_MSC_RDPS_RelativeHumidity_IsbL-0100_RLatLon0.09_PT038H.grib2 2026-04-23 20:50 379K
20260423T18Z_MSC_RDPS_RelativeHumidity_IsbL-0150_RLatLon0.09_PT038H.grib2 2026-04-23 20:50 400K
20260423T18Z_MSC_RDPS_RelativeHumidity_IsbL-0175_RLatLon0.09_PT038H.grib2 2026-04-23 20:50 488K
20260423T18Z_MSC_RDPS_RelativeHumidity_IsbL-0200_RLatLon0.09_PT038H.grib2 2026-04-23 20:50 571K
20260423T18Z_MSC_RDPS_RelativeHumidity_IsbL-0225_RLatLon0.09_PT038H.grib2 2026-04-23 20:50 640K
20260423T18Z_MSC_RDPS_RelativeHumidity_IsbL-0250_RLatLon0.09_PT038H.grib2 2026-04-23 20:50 707K
20260423T18Z_MSC_RDPS_RelativeHumidity_IsbL-0275_RLatLon0.09_PT038H.grib2 2026-04-23 20:50 731K
20260423T18Z_MSC_RDPS_RelativeHumidity_IsbL-0300_RLatLon0.09_PT038H.grib2 2026-04-23 20:50 776K
20260423T18Z_MSC_RDPS_RelativeHumidity_IsbL-0350_RLatLon0.09_PT038H.grib2 2026-04-23 20:50 804K
20260423T18Z_MSC_RDPS_RelativeHumidity_IsbL-0400_RLatLon0.09_PT038H.grib2 2026-04-23 20:50 817K
20260423T18Z_MSC_RDPS_RelativeHumidity_IsbL-0450_RLatLon0.09_PT038H.grib2 2026-04-23 20:50 823K
20260423T18Z_MSC_RDPS_RelativeHumidity_IsbL-0500_RLatLon0.09_PT038H.grib2 2026-04-23 20:50 831K
20260423T18Z_MSC_RDPS_RelativeHumidity_IsbL-0550_RLatLon0.09_PT038H.grib2 2026-04-23 20:50 860K
20260423T18Z_MSC_RDPS_RelativeHumidity_IsbL-0600_RLatLon0.09_PT038H.grib2 2026-04-23 20:50 872K
20260423T18Z_MSC_RDPS_RelativeHumidity_IsbL-0650_RLatLon0.09_PT038H.grib2 2026-04-23 20:50 883K
20260423T18Z_MSC_RDPS_RelativeHumidity_IsbL-0700_RLatLon0.09_PT038H.grib2 2026-04-23 20:50 903K
20260423T18Z_MSC_RDPS_RelativeHumidity_IsbL-0750_RLatLon0.09_PT038H.grib2 2026-04-23 20:50 942K
20260423T18Z_MSC_RDPS_RelativeHumidity_IsbL-0800_RLatLon0.09_PT038H.grib2 2026-04-23 20:50 1.0M
20260423T18Z_MSC_RDPS_RelativeHumidity_IsbL-0850_RLatLon0.09_PT038H.grib2 2026-04-23 20:50 1.0M
20260423T18Z_MSC_RDPS_RelativeHumidity_IsbL-0875_RLatLon0.09_PT038H.grib2 2026-04-23 20:50 1.1M
20260423T18Z_MSC_RDPS_RelativeHumidity_IsbL-0900_RLatLon0.09_PT038H.grib2 2026-04-23 20:50 1.1M
20260423T18Z_MSC_RDPS_RelativeHumidity_IsbL-0925_RLatLon0.09_PT038H.grib2 2026-04-23 20:50 1.1M
20260423T18Z_MSC_RDPS_RelativeHumidity_IsbL-0950_RLatLon0.09_PT038H.grib2 2026-04-23 20:50 1.1M
20260423T18Z_MSC_RDPS_RelativeHumidity_IsbL-0970_RLatLon0.09_PT038H.grib2 2026-04-23 20:50 1.0M
20260423T18Z_MSC_RDPS_RelativeHumidity_IsbL-0985_RLatLon0.09_PT038H.grib2 2026-04-23 20:50 1.0M
20260423T18Z_MSC_RDPS_RelativeHumidity_IsbL-1000_RLatLon0.09_PT038H.grib2 2026-04-23 20:50 1.0M
20260423T18Z_MSC_RDPS_RelativeHumidity_IsbL-1015_RLatLon0.09_PT038H.grib2 2026-04-23 20:50 1.0M
20260423T18Z_MSC_RDPS_Runoff-Accum_Sfc_RLatLon0.09_PT038H.grib2 2026-04-23 20:50 52K
20260423T18Z_MSC_RDPS_SWEATIndex_Sfc_RLatLon0.09_PT038H.grib2 2026-04-23 20:50 2.4M
20260423T18Z_MSC_RDPS_SeeingIndex_EAtm_RLatLon0.09_PT038H.grib2 2026-04-23 20:50 1.0M
20260423T18Z_MSC_RDPS_SensibleHeatNetFlux_Sfc_RLatLon0.09_PT038H.grib2 2026-04-23 20:50 289K
20260423T18Z_MSC_RDPS_ShowalterIndex_IsbL-0500_RLatLon0.09_PT038H.grib2 2026-04-23 20:50 2.6M
20260423T18Z_MSC_RDPS_SkyTransparencyIndex_EAtm_RLatLon0.09_PT038H.grib2 2026-04-23 20:50 707K
20260423T18Z_MSC_RDPS_Snow-Accum1h_Sfc_RLatLon0.09_PT038H.grib2 2026-04-23 20:50 591K
20260423T18Z_MSC_RDPS_Snow-Accum_Sfc_RLatLon0.09_PT038H.grib2 2026-04-23 20:50 763K
20260423T18Z_MSC_RDPS_SnowDensity_Sfc_RLatLon0.09_PT038H.grib2 2026-04-23 20:50 177K
20260423T18Z_MSC_RDPS_SnowDepth_Sfc_RLatLon0.09_PT038H.grib2 2026-04-23 20:50 725K
20260423T18Z_MSC_RDPS_SoilTemp_DBS-0to10cm_RLatLon0.09_PT038H.grib2 2026-04-23 20:50 231K
20260423T18Z_MSC_RDPS_SoilTemp_Sfc_RLatLon0.09_PT038H.grib2 2026-04-23 20:50 280K
20260423T18Z_MSC_RDPS_SoilVolumetricIceContent_Sfc_RLatLon0.09_PT038H.grib2 2026-04-23 20:50 169K
20260423T18Z_MSC_RDPS_SoilVolumetricWaterContent_DBS-0to10cm_RLatLon0.09_PT038H.grib2 2026-04-23 20:50 254K
20260423T18Z_MSC_RDPS_SoilVolumetricWaterContent_DBS-0to1cm_RLatLon0.09_PT038H.grib2 2026-04-23 20:50 340K
20260423T18Z_MSC_RDPS_SpecificHumidity_AGL-120m_RLatLon0.09_PT038H.grib2 2026-04-23 20:50 479K
20260423T18Z_MSC_RDPS_SpecificHumidity_AGL-2m_RLatLon0.09_PT038H.grib2 2026-04-23 20:50 645K
20260423T18Z_MSC_RDPS_SpecificHumidity_AGL-40m_RLatLon0.09_PT038H.grib2 2026-04-23 20:50 484K
20260423T18Z_MSC_RDPS_SpecificHumidity_AGL-80m_RLatLon0.09_PT038H.grib2 2026-04-23 20:50 480K
20260423T18Z_MSC_RDPS_SpecificHumidity_IsbL-0001_RLatLon0.09_PT038H.grib2 2026-04-23 20:50 336K
20260423T18Z_MSC_RDPS_SpecificHumidity_IsbL-0005_RLatLon0.09_PT038H.grib2 2026-04-23 20:50 457K
20260423T18Z_MSC_RDPS_SpecificHumidity_IsbL-0010_RLatLon0.09_PT038H.grib2 2026-04-23 20:50 396K
20260423T18Z_MSC_RDPS_SpecificHumidity_IsbL-0020_RLatLon0.09_PT038H.grib2 2026-04-23 20:50 384K
20260423T18Z_MSC_RDPS_SpecificHumidity_IsbL-0030_RLatLon0.09_PT038H.grib2 2026-04-23 20:50 447K
20260423T18Z_MSC_RDPS_SpecificHumidity_IsbL-0050_RLatLon0.09_PT038H.grib2 2026-04-23 20:50 481K
20260423T18Z_MSC_RDPS_SpecificHumidity_IsbL-0100_RLatLon0.09_PT038H.grib2 2026-04-23 20:50 531K
20260423T18Z_MSC_RDPS_SpecificHumidity_IsbL-0150_RLatLon0.09_PT038H.grib2 2026-04-23 20:50 440K
20260423T18Z_MSC_RDPS_SpecificHumidity_IsbL-0175_RLatLon0.09_PT038H.grib2 2026-04-23 20:50 543K
20260423T18Z_MSC_RDPS_SpecificHumidity_IsbL-0200_RLatLon0.09_PT038H.grib2 2026-04-23 20:50 562K
20260423T18Z_MSC_RDPS_SpecificHumidity_IsbL-0225_RLatLon0.09_PT038H.grib2 2026-04-23 20:50 568K
20260423T18Z_MSC_RDPS_SpecificHumidity_IsbL-0250_RLatLon0.09_PT038H.grib2 2026-04-23 20:50 568K
20260423T18Z_MSC_RDPS_SpecificHumidity_IsbL-0275_RLatLon0.09_PT038H.grib2 2026-04-23 20:50 483K
20260423T18Z_MSC_RDPS_SpecificHumidity_IsbL-0300_RLatLon0.09_PT038H.grib2 2026-04-23 20:50 556K
20260423T18Z_MSC_RDPS_SpecificHumidity_IsbL-0350_RLatLon0.09_PT038H.grib2 2026-04-23 20:50 551K
20260423T18Z_MSC_RDPS_SpecificHumidity_IsbL-0400_RLatLon0.09_PT038H.grib2 2026-04-23 20:50 531K
20260423T18Z_MSC_RDPS_SpecificHumidity_IsbL-0450_RLatLon0.09_PT038H.grib2 2026-04-23 20:50 583K
20260423T18Z_MSC_RDPS_SpecificHumidity_IsbL-0500_RLatLon0.09_PT038H.grib2 2026-04-23 20:50 520K
20260423T18Z_MSC_RDPS_SpecificHumidity_IsbL-0550_RLatLon0.09_PT038H.grib2 2026-04-23 20:50 577K
20260423T18Z_MSC_RDPS_SpecificHumidity_IsbL-0600_RLatLon0.09_PT038H.grib2 2026-04-23 20:50 642K
20260423T18Z_MSC_RDPS_SpecificHumidity_IsbL-0650_RLatLon0.09_PT038H.grib2 2026-04-23 20:50 557K
20260423T18Z_MSC_RDPS_SpecificHumidity_IsbL-0700_RLatLon0.09_PT038H.grib2 2026-04-23 20:50 598K
20260423T18Z_MSC_RDPS_SpecificHumidity_IsbL-0750_RLatLon0.09_PT038H.grib2 2026-04-23 20:50 650K
20260423T18Z_MSC_RDPS_SpecificHumidity_IsbL-0800_RLatLon0.09_PT038H.grib2 2026-04-23 20:50 716K
20260423T18Z_MSC_RDPS_SpecificHumidity_IsbL-0850_RLatLon0.09_PT038H.grib2 2026-04-23 20:50 789K
20260423T18Z_MSC_RDPS_SpecificHumidity_IsbL-0875_RLatLon0.09_PT038H.grib2 2026-04-23 20:50 816K
20260423T18Z_MSC_RDPS_SpecificHumidity_IsbL-0900_RLatLon0.09_PT038H.grib2 2026-04-23 20:50 831K
20260423T18Z_MSC_RDPS_SpecificHumidity_IsbL-0925_RLatLon0.09_PT038H.grib2 2026-04-23 20:50 832K
20260423T18Z_MSC_RDPS_SpecificHumidity_IsbL-0950_RLatLon0.09_PT038H.grib2 2026-04-23 20:50 828K
20260423T18Z_MSC_RDPS_SpecificHumidity_IsbL-0970_RLatLon0.09_PT038H.grib2 2026-04-23 20:50 818K
20260423T18Z_MSC_RDPS_SpecificHumidity_IsbL-0985_RLatLon0.09_PT038H.grib2 2026-04-23 20:50 810K
20260423T18Z_MSC_RDPS_SpecificHumidity_IsbL-1000_RLatLon0.09_PT038H.grib2 2026-04-23 20:50 802K
20260423T18Z_MSC_RDPS_SpecificHumidity_IsbL-1015_RLatLon0.09_PT038H.grib2 2026-04-23 20:50 652K
20260423T18Z_MSC_RDPS_SpecificHumidity_Sfc_RLatLon0.09_PT038H.grib2 2026-04-23 20:50 288K
20260423T18Z_MSC_RDPS_StormRelativeHelicity_EtaL-10000_RLatLon0.09_PT038H.grib2 2026-04-23 20:50 1.1M
20260423T18Z_MSC_RDPS_StormSeverityIndex_EtaL-10000_RLatLon0.09_PT038H.grib2 2026-04-23 20:50 1.1M
20260423T18Z_MSC_RDPS_Thickness_IsbL-0850to0700_RLatLon0.09_PT038H.grib2 2026-04-23 20:50 176K
20260423T18Z_MSC_RDPS_Thickness_IsbL-1000to0500_RLatLon0.09_PT038H.grib2 2026-04-23 20:50 198K
20260423T18Z_MSC_RDPS_Thickness_IsbL-1000to0850_RLatLon0.09_PT038H.grib2 2026-04-23 20:50 185K
20260423T18Z_MSC_RDPS_TotalCloudCover_Sfc_RLatLon0.09_PT038H.grib2 2026-04-23 20:50 671K
20260423T18Z_MSC_RDPS_TotalTotalsIndex_Sfc_RLatLon0.09_PT038H.grib2 2026-04-23 20:50 2.4M
20260423T18Z_MSC_RDPS_UVIndex-ClearSky_Sfc_RLatLon0.09_PT038H.grib2 2026-04-23 20:50 85K
20260423T18Z_MSC_RDPS_UVIndex_Sfc_RLatLon0.09_PT038H.grib2 2026-04-23 20:50 156K
20260423T18Z_MSC_RDPS_UpwardLongwaveRadiationFlux_NTAtm_RLatLon0.09_PT038H.grib2 2026-04-23 20:50 492K
20260423T18Z_MSC_RDPS_UpwardShortwaveRadiationFlux_NTAtm_RLatLon0.09_PT038H.grib2 2026-04-23 20:50 137K
20260423T18Z_MSC_RDPS_VerticalVelocity_IsbL-0250_RLatLon0.09_PT038H.grib2 2026-04-23 20:50 596K
20260423T18Z_MSC_RDPS_VerticalVelocity_IsbL-0500_RLatLon0.09_PT038H.grib2 2026-04-23 20:50 551K
20260423T18Z_MSC_RDPS_VerticalVelocity_IsbL-0700_RLatLon0.09_PT038H.grib2 2026-04-23 20:50 599K
20260423T18Z_MSC_RDPS_VerticalVelocity_IsbL-0850_RLatLon0.09_PT038H.grib2 2026-04-23 20:50 698K
20260423T18Z_MSC_RDPS_VerticalWindShear_EtaL-6500_RLatLon0.09_PT038H.grib2 2026-04-23 20:50 1.2M
20260423T18Z_MSC_RDPS_WindChill_Sfc_RLatLon0.09_PT038H.grib2 2026-04-23 20:50 1.2M
20260423T18Z_MSC_RDPS_WindDir_AGL-10m_RLatLon0.09_PT038H.grib2 2026-04-23 20:50 1.0M
20260423T18Z_MSC_RDPS_WindDir_AGL-120m_RLatLon0.09_PT038H.grib2 2026-04-23 20:50 623K
20260423T18Z_MSC_RDPS_WindDir_AGL-40m_RLatLon0.09_PT038H.grib2 2026-04-23 20:50 659K
20260423T18Z_MSC_RDPS_WindDir_AGL-80m_RLatLon0.09_PT038H.grib2 2026-04-23 20:50 637K
20260423T18Z_MSC_RDPS_WindDir_IsbL-0001_RLatLon0.09_PT038H.grib2 2026-04-23 20:50 298K
20260423T18Z_MSC_RDPS_WindDir_IsbL-0005_RLatLon0.09_PT038H.grib2 2026-04-23 20:50 369K
20260423T18Z_MSC_RDPS_WindDir_IsbL-0010_RLatLon0.09_PT038H.grib2 2026-04-23 20:50 382K
20260423T18Z_MSC_RDPS_WindDir_IsbL-0020_RLatLon0.09_PT038H.grib2 2026-04-23 20:50 407K
20260423T18Z_MSC_RDPS_WindDir_IsbL-0030_RLatLon0.09_PT038H.grib2 2026-04-23 20:50 415K
20260423T18Z_MSC_RDPS_WindDir_IsbL-0050_RLatLon0.09_PT038H.grib2 2026-04-23 20:50 440K
20260423T18Z_MSC_RDPS_WindDir_IsbL-0100_RLatLon0.09_PT038H.grib2 2026-04-23 20:50 439K
20260423T18Z_MSC_RDPS_WindDir_IsbL-0150_RLatLon0.09_PT038H.grib2 2026-04-23 20:50 429K
20260423T18Z_MSC_RDPS_WindDir_IsbL-0175_RLatLon0.09_PT038H.grib2 2026-04-23 20:50 445K
20260423T18Z_MSC_RDPS_WindDir_IsbL-0200_RLatLon0.09_PT038H.grib2 2026-04-23 20:50 447K
20260423T18Z_MSC_RDPS_WindDir_IsbL-0225_RLatLon0.09_PT038H.grib2 2026-04-23 20:50 443K
20260423T18Z_MSC_RDPS_WindDir_IsbL-0250_RLatLon0.09_PT038H.grib2 2026-04-23 20:50 441K
20260423T18Z_MSC_RDPS_WindDir_IsbL-0275_RLatLon0.09_PT038H.grib2 2026-04-23 20:50 463K
20260423T18Z_MSC_RDPS_WindDir_IsbL-0300_RLatLon0.09_PT038H.grib2 2026-04-23 20:50 466K
20260423T18Z_MSC_RDPS_WindDir_IsbL-0350_RLatLon0.09_PT038H.grib2 2026-04-23 20:50 491K
20260423T18Z_MSC_RDPS_WindDir_IsbL-0400_RLatLon0.09_PT038H.grib2 2026-04-23 20:50 503K
20260423T18Z_MSC_RDPS_WindDir_IsbL-0450_RLatLon0.09_PT038H.grib2 2026-04-23 20:50 518K
20260423T18Z_MSC_RDPS_WindDir_IsbL-0500_RLatLon0.09_PT038H.grib2 2026-04-23 20:50 536K
20260423T18Z_MSC_RDPS_WindDir_IsbL-0550_RLatLon0.09_PT038H.grib2 2026-04-23 20:50 561K
20260423T18Z_MSC_RDPS_WindDir_IsbL-0600_RLatLon0.09_PT038H.grib2 2026-04-23 20:50 593K
20260423T18Z_MSC_RDPS_WindDir_IsbL-0650_RLatLon0.09_PT038H.grib2 2026-04-23 20:50 638K
20260423T18Z_MSC_RDPS_WindDir_IsbL-0700_RLatLon0.09_PT038H.grib2 2026-04-23 20:50 684K
20260423T18Z_MSC_RDPS_WindDir_IsbL-0750_RLatLon0.09_PT038H.grib2 2026-04-23 20:50 734K
20260423T18Z_MSC_RDPS_WindDir_IsbL-0800_RLatLon0.09_PT038H.grib2 2026-04-23 20:50 801K
20260423T18Z_MSC_RDPS_WindDir_IsbL-0850_RLatLon0.09_PT038H.grib2 2026-04-23 20:50 874K
20260423T18Z_MSC_RDPS_WindDir_IsbL-0875_RLatLon0.09_PT038H.grib2 2026-04-23 20:50 902K
20260423T18Z_MSC_RDPS_WindDir_IsbL-0900_RLatLon0.09_PT038H.grib2 2026-04-23 20:50 919K
20260423T18Z_MSC_RDPS_WindDir_IsbL-0925_RLatLon0.09_PT038H.grib2 2026-04-23 20:50 927K
20260423T18Z_MSC_RDPS_WindDir_IsbL-0950_RLatLon0.09_PT038H.grib2 2026-04-23 20:50 928K
20260423T18Z_MSC_RDPS_WindDir_IsbL-0970_RLatLon0.09_PT038H.grib2 2026-04-23 20:50 939K
20260423T18Z_MSC_RDPS_WindDir_IsbL-0985_RLatLon0.09_PT038H.grib2 2026-04-23 20:50 952K
20260423T18Z_MSC_RDPS_WindDir_IsbL-1000_RLatLon0.09_PT038H.grib2 2026-04-23 20:50 969K
20260423T18Z_MSC_RDPS_WindDir_IsbL-1015_RLatLon0.09_PT038H.grib2 2026-04-23 20:50 1.0M
20260423T18Z_MSC_RDPS_WindGust-Max_AGL-10m_RLatLon0.09_PT038H.grib2 2026-04-23 20:50 1.0M
20260423T18Z_MSC_RDPS_WindGust-Min_AGL-10m_RLatLon0.09_PT038H.grib2 2026-04-23 20:50 968K
20260423T18Z_MSC_RDPS_WindGust_AGL-10m_RLatLon0.09_PT038H.grib2 2026-04-23 20:50 1.0M
20260423T18Z_MSC_RDPS_WindSpeed_AGL-10m_RLatLon0.09_PT038H.grib2 2026-04-23 20:50 853K
20260423T18Z_MSC_RDPS_WindSpeed_AGL-120m_RLatLon0.09_PT038H.grib2 2026-04-23 20:50 547K
20260423T18Z_MSC_RDPS_WindSpeed_AGL-40m_RLatLon0.09_PT038H.grib2 2026-04-23 20:50 550K
20260423T18Z_MSC_RDPS_WindSpeed_AGL-80m_RLatLon0.09_PT038H.grib2 2026-04-23 20:50 549K
20260423T18Z_MSC_RDPS_WindSpeed_IsbL-0001_RLatLon0.09_PT038H.grib2 2026-04-23 20:50 253K
20260423T18Z_MSC_RDPS_WindSpeed_IsbL-0005_RLatLon0.09_PT038H.grib2 2026-04-23 20:50 302K
20260423T18Z_MSC_RDPS_WindSpeed_IsbL-0010_RLatLon0.09_PT038H.grib2 2026-04-23 20:50 407K
20260423T18Z_MSC_RDPS_WindSpeed_IsbL-0020_RLatLon0.09_PT038H.grib2 2026-04-23 20:50 432K
20260423T18Z_MSC_RDPS_WindSpeed_IsbL-0030_RLatLon0.09_PT038H.grib2 2026-04-23 20:50 338K
20260423T18Z_MSC_RDPS_WindSpeed_IsbL-0050_RLatLon0.09_PT038H.grib2 2026-04-23 20:50 479K
20260423T18Z_MSC_RDPS_WindSpeed_IsbL-0100_RLatLon0.09_PT038H.grib2 2026-04-23 20:50 449K
20260423T18Z_MSC_RDPS_WindSpeed_IsbL-0150_RLatLon0.09_PT038H.grib2 2026-04-23 20:50 390K
20260423T18Z_MSC_RDPS_WindSpeed_IsbL-0175_RLatLon0.09_PT038H.grib2 2026-04-23 20:50 438K
20260423T18Z_MSC_RDPS_WindSpeed_IsbL-0200_RLatLon0.09_PT038H.grib2 2026-04-23 20:50 453K
20260423T18Z_MSC_RDPS_WindSpeed_IsbL-0225_RLatLon0.09_PT038H.grib2 2026-04-23 20:50 459K
20260423T18Z_MSC_RDPS_WindSpeed_IsbL-0250_RLatLon0.09_PT038H.grib2 2026-04-23 20:50 460K
20260423T18Z_MSC_RDPS_WindSpeed_IsbL-0275_RLatLon0.09_PT038H.grib2 2026-04-23 20:50 478K
20260423T18Z_MSC_RDPS_WindSpeed_IsbL-0300_RLatLon0.09_PT038H.grib2 2026-04-23 20:50 474K
20260423T18Z_MSC_RDPS_WindSpeed_IsbL-0350_RLatLon0.09_PT038H.grib2 2026-04-23 20:50 485K
20260423T18Z_MSC_RDPS_WindSpeed_IsbL-0400_RLatLon0.09_PT038H.grib2 2026-04-23 20:50 485K
20260423T18Z_MSC_RDPS_WindSpeed_IsbL-0450_RLatLon0.09_PT038H.grib2 2026-04-23 20:50 467K
20260423T18Z_MSC_RDPS_WindSpeed_IsbL-0500_RLatLon0.09_PT038H.grib2 2026-04-23 20:50 467K
20260423T18Z_MSC_RDPS_WindSpeed_IsbL-0550_RLatLon0.09_PT038H.grib2 2026-04-23 20:50 468K
20260423T18Z_MSC_RDPS_WindSpeed_IsbL-0600_RLatLon0.09_PT038H.grib2 2026-04-23 20:50 596K
20260423T18Z_MSC_RDPS_WindSpeed_IsbL-0650_RLatLon0.09_PT038H.grib2 2026-04-23 20:50 618K
20260423T18Z_MSC_RDPS_WindSpeed_IsbL-0700_RLatLon0.09_PT038H.grib2 2026-04-23 20:50 685K
20260423T18Z_MSC_RDPS_WindSpeed_IsbL-0750_RLatLon0.09_PT038H.grib2 2026-04-23 20:50 717K
20260423T18Z_MSC_RDPS_WindSpeed_IsbL-0800_RLatLon0.09_PT038H.grib2 2026-04-23 20:50 767K
20260423T18Z_MSC_RDPS_WindSpeed_IsbL-0850_RLatLon0.09_PT038H.grib2 2026-04-23 20:50 774K
20260423T18Z_MSC_RDPS_WindSpeed_IsbL-0875_RLatLon0.09_PT038H.grib2 2026-04-23 20:50 792K
20260423T18Z_MSC_RDPS_WindSpeed_IsbL-0900_RLatLon0.09_PT038H.grib2 2026-04-23 20:50 808K
20260423T18Z_MSC_RDPS_WindSpeed_IsbL-0925_RLatLon0.09_PT038H.grib2 2026-04-23 20:50 866K
20260423T18Z_MSC_RDPS_WindSpeed_IsbL-0950_RLatLon0.09_PT038H.grib2 2026-04-23 20:50 866K
20260423T18Z_MSC_RDPS_WindSpeed_IsbL-0970_RLatLon0.09_PT038H.grib2 2026-04-23 20:50 864K
20260423T18Z_MSC_RDPS_WindSpeed_IsbL-0985_RLatLon0.09_PT038H.grib2 2026-04-23 20:50 861K
20260423T18Z_MSC_RDPS_WindSpeed_IsbL-1000_RLatLon0.09_PT038H.grib2 2026-04-23 20:50 856K
20260423T18Z_MSC_RDPS_WindSpeed_IsbL-1015_RLatLon0.09_PT038H.grib2 2026-04-23 20:50 849K
20260423T18Z_MSC_RDPS_WindU_AGL-10m_RLatLon0.09_PT038H.grib2 2026-04-23 20:50 437K
20260423T18Z_MSC_RDPS_WindU_AGL-120m_RLatLon0.09_PT038H.grib2 2026-04-23 20:50 543K
20260423T18Z_MSC_RDPS_WindU_AGL-40m_RLatLon0.09_PT038H.grib2 2026-04-23 20:50 546K
20260423T18Z_MSC_RDPS_WindU_AGL-80m_RLatLon0.09_PT038H.grib2 2026-04-23 20:50 544K
20260423T18Z_MSC_RDPS_WindU_IsbL-0001_RLatLon0.09_PT038H.grib2 2026-04-23 20:50 268K
20260423T18Z_MSC_RDPS_WindU_IsbL-0005_RLatLon0.09_PT038H.grib2 2026-04-23 20:50 294K
20260423T18Z_MSC_RDPS_WindU_IsbL-0010_RLatLon0.09_PT038H.grib2 2026-04-23 20:50 306K
20260423T18Z_MSC_RDPS_WindU_IsbL-0020_RLatLon0.09_PT038H.grib2 2026-04-23 20:50 326K
20260423T18Z_MSC_RDPS_WindU_IsbL-0030_RLatLon0.09_PT038H.grib2 2026-04-23 20:50 367K
20260423T18Z_MSC_RDPS_WindU_IsbL-0050_RLatLon0.09_PT038H.grib2 2026-04-23 20:50 364K
20260423T18Z_MSC_RDPS_WindU_IsbL-0100_RLatLon0.09_PT038H.grib2 2026-04-23 20:50 480K
20260423T18Z_MSC_RDPS_WindU_IsbL-0150_RLatLon0.09_PT038H.grib2 2026-04-23 20:50 384K
20260423T18Z_MSC_RDPS_WindU_IsbL-0175_RLatLon0.09_PT038H.grib2 2026-04-23 20:50 433K
20260423T18Z_MSC_RDPS_WindU_IsbL-0200_RLatLon0.09_PT038H.grib2 2026-04-23 20:50 448K
20260423T18Z_MSC_RDPS_WindU_IsbL-0225_RLatLon0.09_PT038H.grib2 2026-04-23 20:50 451K
20260423T18Z_MSC_RDPS_WindU_IsbL-0250_RLatLon0.09_PT038H.grib2 2026-04-23 20:50 349K
20260423T18Z_MSC_RDPS_WindU_IsbL-0275_RLatLon0.09_PT038H.grib2 2026-04-23 20:50 364K
20260423T18Z_MSC_RDPS_WindU_IsbL-0300_RLatLon0.09_PT038H.grib2 2026-04-23 20:50 360K
20260423T18Z_MSC_RDPS_WindU_IsbL-0350_RLatLon0.09_PT038H.grib2 2026-04-23 20:50 368K
20260423T18Z_MSC_RDPS_WindU_IsbL-0400_RLatLon0.09_PT038H.grib2 2026-04-23 20:50 474K
20260423T18Z_MSC_RDPS_WindU_IsbL-0450_RLatLon0.09_PT038H.grib2 2026-04-23 20:50 473K
20260423T18Z_MSC_RDPS_WindU_IsbL-0500_RLatLon0.09_PT038H.grib2 2026-04-23 20:50 472K
20260423T18Z_MSC_RDPS_WindU_IsbL-0550_RLatLon0.09_PT038H.grib2 2026-04-23 20:50 474K
20260423T18Z_MSC_RDPS_WindU_IsbL-0600_RLatLon0.09_PT038H.grib2 2026-04-23 20:50 467K
20260423T18Z_MSC_RDPS_WindU_IsbL-0650_RLatLon0.09_PT038H.grib2 2026-04-23 20:50 487K
20260423T18Z_MSC_RDPS_WindU_IsbL-0700_RLatLon0.09_PT038H.grib2 2026-04-23 20:50 508K
20260423T18Z_MSC_RDPS_WindU_IsbL-0750_RLatLon0.09_PT038H.grib2 2026-04-23 20:50 537K
20260423T18Z_MSC_RDPS_WindU_IsbL-0800_RLatLon0.09_PT038H.grib2 2026-04-23 20:50 581K
20260423T18Z_MSC_RDPS_WindU_IsbL-0850_RLatLon0.09_PT038H.grib2 2026-04-23 20:50 628K
20260423T18Z_MSC_RDPS_WindU_IsbL-0875_RLatLon0.09_PT038H.grib2 2026-04-23 20:50 644K
20260423T18Z_MSC_RDPS_WindU_IsbL-0900_RLatLon0.09_PT038H.grib2 2026-04-23 20:50 663K
20260423T18Z_MSC_RDPS_WindU_IsbL-0925_RLatLon0.09_PT038H.grib2 2026-04-23 20:50 664K
20260423T18Z_MSC_RDPS_WindU_IsbL-0950_RLatLon0.09_PT038H.grib2 2026-04-23 20:50 662K
20260423T18Z_MSC_RDPS_WindU_IsbL-0970_RLatLon0.09_PT038H.grib2 2026-04-23 20:50 661K
20260423T18Z_MSC_RDPS_WindU_IsbL-0985_RLatLon0.09_PT038H.grib2 2026-04-23 20:50 798K
20260423T18Z_MSC_RDPS_WindU_IsbL-1000_RLatLon0.09_PT038H.grib2 2026-04-23 20:50 841K
20260423T18Z_MSC_RDPS_WindU_IsbL-1015_RLatLon0.09_PT038H.grib2 2026-04-23 20:50 835K
20260423T18Z_MSC_RDPS_WindV_AGL-10m_RLatLon0.09_PT038H.grib2 2026-04-23 20:50 435K
20260423T18Z_MSC_RDPS_WindV_AGL-120m_RLatLon0.09_PT038H.grib2 2026-04-23 20:50 539K
20260423T18Z_MSC_RDPS_WindV_AGL-40m_RLatLon0.09_PT038H.grib2 2026-04-23 20:50 543K
20260423T18Z_MSC_RDPS_WindV_AGL-80m_RLatLon0.09_PT038H.grib2 2026-04-23 20:50 541K
20260423T18Z_MSC_RDPS_WindV_IsbL-0001_RLatLon0.09_PT038H.grib2 2026-04-23 20:50 295K
20260423T18Z_MSC_RDPS_WindV_IsbL-0005_RLatLon0.09_PT038H.grib2 2026-04-23 20:50 337K
20260423T18Z_MSC_RDPS_WindV_IsbL-0010_RLatLon0.09_PT038H.grib2 2026-04-23 20:50 307K
20260423T18Z_MSC_RDPS_WindV_IsbL-0020_RLatLon0.09_PT038H.grib2 2026-04-23 20:50 326K
20260423T18Z_MSC_RDPS_WindV_IsbL-0030_RLatLon0.09_PT038H.grib2 2026-04-23 20:50 366K
20260423T18Z_MSC_RDPS_WindV_IsbL-0050_RLatLon0.09_PT038H.grib2 2026-04-23 20:50 363K
20260423T18Z_MSC_RDPS_WindV_IsbL-0100_RLatLon0.09_PT038H.grib2 2026-04-23 20:50 342K
20260423T18Z_MSC_RDPS_WindV_IsbL-0150_RLatLon0.09_PT038H.grib2 2026-04-23 20:50 402K
20260423T18Z_MSC_RDPS_WindV_IsbL-0175_RLatLon0.09_PT038H.grib2 2026-04-23 20:50 332K
20260423T18Z_MSC_RDPS_WindV_IsbL-0200_RLatLon0.09_PT038H.grib2 2026-04-23 20:50 344K
20260423T18Z_MSC_RDPS_WindV_IsbL-0225_RLatLon0.09_PT038H.grib2 2026-04-23 20:50 347K
20260423T18Z_MSC_RDPS_WindV_IsbL-0250_RLatLon0.09_PT038H.grib2 2026-04-23 20:50 347K
20260423T18Z_MSC_RDPS_WindV_IsbL-0275_RLatLon0.09_PT038H.grib2 2026-04-23 20:50 360K
20260423T18Z_MSC_RDPS_WindV_IsbL-0300_RLatLon0.09_PT038H.grib2 2026-04-23 20:50 357K
20260423T18Z_MSC_RDPS_WindV_IsbL-0350_RLatLon0.09_PT038H.grib2 2026-04-23 20:50 366K
20260423T18Z_MSC_RDPS_WindV_IsbL-0400_RLatLon0.09_PT038H.grib2 2026-04-23 20:50 365K
20260423T18Z_MSC_RDPS_WindV_IsbL-0450_RLatLon0.09_PT038H.grib2 2026-04-23 20:50 469K
20260423T18Z_MSC_RDPS_WindV_IsbL-0500_RLatLon0.09_PT038H.grib2 2026-04-23 20:50 469K
20260423T18Z_MSC_RDPS_WindV_IsbL-0550_RLatLon0.09_PT038H.grib2 2026-04-23 20:50 471K
20260423T18Z_MSC_RDPS_WindV_IsbL-0600_RLatLon0.09_PT038H.grib2 2026-04-23 20:50 479K
20260423T18Z_MSC_RDPS_WindV_IsbL-0650_RLatLon0.09_PT038H.grib2 2026-04-23 20:50 481K
20260423T18Z_MSC_RDPS_WindV_IsbL-0700_RLatLon0.09_PT038H.grib2 2026-04-23 20:50 502K
20260423T18Z_MSC_RDPS_WindV_IsbL-0750_RLatLon0.09_PT038H.grib2 2026-04-23 20:50 530K
20260423T18Z_MSC_RDPS_WindV_IsbL-0800_RLatLon0.09_PT038H.grib2 2026-04-23 20:50 574K
20260423T18Z_MSC_RDPS_WindV_IsbL-0850_RLatLon0.09_PT038H.grib2 2026-04-23 20:50 621K
20260423T18Z_MSC_RDPS_WindV_IsbL-0875_RLatLon0.09_PT038H.grib2 2026-04-23 20:50 638K
20260423T18Z_MSC_RDPS_WindV_IsbL-0900_RLatLon0.09_PT038H.grib2 2026-04-23 20:50 651K
20260423T18Z_MSC_RDPS_WindV_IsbL-0925_RLatLon0.09_PT038H.grib2 2026-04-23 20:50 660K
20260423T18Z_MSC_RDPS_WindV_IsbL-0950_RLatLon0.09_PT038H.grib2 2026-04-23 20:50 657K
20260423T18Z_MSC_RDPS_WindV_IsbL-0970_RLatLon0.09_PT038H.grib2 2026-04-23 20:50 797K
20260423T18Z_MSC_RDPS_WindV_IsbL-0985_RLatLon0.09_PT038H.grib2 2026-04-23 20:50 793K
20260423T18Z_MSC_RDPS_WindV_IsbL-1000_RLatLon0.09_PT038H.grib2 2026-04-23 20:50 789K
20260423T18Z_MSC_RDPS_WindV_IsbL-1015_RLatLon0.09_PT038H.grib2 2026-04-23 20:50 830K